732  
ASUS44 KHUN 181410  
RWRHUN  
 
WEATHER ROUNDUP FOR THE TENNESSEE VALLEY  
NATIONAL WEATHER SERVICE HUNTSVILLE AL  
900 AM CDT THU APR 18 2019  
 
ALZ001>004-181500-  
NORTHWEST ALABAMA  
 
CITY SKY/WX TMP DP RH WIND PRES REMARKS
 
SHOALS AIRPORT CLOUDY 68 59 73 S10 29.89S  

 
 
ALZ005>007-016-181500-  
NORTH CENTRAL ALABAMA  
 
CITY SKY/WX TMP DP RH WIND PRES REMARKS
 
DECATUR AP CLOUDY 67 60 78 S13 29.92R  
HUNTSVILLE AP CLOUDY 67 61 81 S10 29.92S  
HUN NWS/UAH N/A 67 57 70 S7 N/A  
MERIDIANVILLE PTSUNNY 69 59 71 S15G23 29.92S  
VINEMONT AP CLOUDY 64 59 85 S12 29.95R  

 
 
ALZ008>010-181500-  
NORTHEAST ALABAMA  
 
CITY SKY/WX TMP DP RH WIND PRES REMARKS
 
ALBERTVILLE FAIR 66 57 72 S10G18 29.95R  
FORT PAYNE FAIR 69 58 69 S9 29.94S  
SCOTTSBORO AP FAIR 70 61 73 SW8G16 29.94S  

 
 
TNZ076-096-097-181500-  
SOUTHEASTERN MIDDLE TENNESSEE  
 
CITY SKY/WX TMP DP RH WIND PRES REMARKS
 
FAYETTEVILLE CLOUDY 68 59 73 S16G25 29.91R  
TULLAHOMA SUNNY 68 55 64 S17G30 29.90S  
WINCHESTER SUNNY 70 55 60 SW15G25 29.91F  

 
   
..SURROUNDING SITES
 
 
 
CITY SKY/WX TMP DP RH WIND PRES REMARKS
 
ATLANTA PTSUNNY 66 59 78 S7 30.01R  
ANNISTON FAIR 69 60 73 VRB6 29.95F  
BIRMINGHAM PTSUNNY 69 60 73 S13 29.96R  
CHATTANOOGA PTSUNNY 68 56 65 SW8 29.95S  
CORINTH PTSUNNY 68 59 73 S13G22 29.82S  
DALTON CLOUDY 68 59 73 S5 29.99S  
GADSDEN FAIR 68 64 87 S8 29.95F  
GOLDEN TRNGL FAIR 68 64 87 S14 29.88F  
HALEYVILLE CLOUDY 66 61 84 S16G24 29.92S  
JACKSON TN CLOUDY 65 60 84 S7 29.78F  
MEMPHIS LGT RAIN 63 63 100 S9 29.78R FOG  
NASHVILLE CLOUDY 68 56 65 SW12G21 29.86F  
OXFORD MS CLOUDY 64 59 82 S13G22 29.81F  
ROME FAIR 67 58 72 SE7 29.96F  
SAVANNAH MOSUNNY 68 61 77 S20 29.81F  
SELMER MOSUNNY 66 59 77 S15G21 29.80F  
TUPELO PTSUNNY 67 61 81 S13 29.84S  
TUSCALOOSA PTSUNNY 72 63 73 S13 29.92R  

 
 
 
 
CLICK HERE TO GO TO PREVIOUS BULLETINS.

The Nexlab AL Page
The Nexlab TN Page Main Text Page